Cecil Field, FL

9:51 AM EST on November 20, 2019 (GMT -0500)
Cecil

Weather History for KVQQ - October, 2019

Change the Weather History Date:

Sunday, October 20, 2019

  Actual Average (KNIP) Record (KNIP)
Temperature  
Mean Temperature 72 °F -  
Max Temperature 84 °F 76 °F 93 °F (2006)
Min Temperature 60 °F 62 °F 48 °F (1996)
Cooling Degree Days 7    
Growing Degree Days 22 (Base 50)    
Moisture  
Dew Point 67 °F    
Average Humidity 78    
Maximum Humidity 100    
Minimum Humidity 51    
Precipitation  
Precipitation 0.00 in - - ()
Sea Level Pressure  
Sea Level Pressure 29.84 in    
Wind  
Wind Speed 11 mph (WSW)    
Max Wind Speed 17 mph    
Max Gust Speed 25 mph    
Visibility 10 miles    
Events      
Averages and records for this station are not official NWS values.
T = Trace of Precipitation, MM = Missing Value Source: NWS Daily Summary

Daily Weather History Graph

Daily Weather History Graph

Search for Another Location

Airport or City:

Astronomy

Oct. 20, 2019 Rise Set
Actual Time 7:32 AM EDT 6:51 PM EDT
Civil Twilight 7:08 AM EDT 7:15 PM EDT
Nautical Twilight 6:40 AM EDT 7:43 PM EDT
Astronomical Twilight 6:12 AM EDT 8:11 PM EDT
Moon No Moon Rise 1:42 PM EDT
Length of Visible Light 12h 07m
Length of Day
11h 18m
Waning Gibbous, 59% of the Moon is Illuminated
Oct 20
Waning Gibbous
Oct 21
Last Quarter
Oct 27
New
Nov 4
First Quarter
Nov 12
Full

Hourly Weather History & Observations

Time (EDT) Temp. Heat Index Dew Point Humidity Pressure Visibility Wind Dir Wind Speed Gust Speed Precip Events Conditions
12:15 AM 77.0 °F - 71.6 °F 83% 29.75 in 10.0 mi SSW 11.5 mph 20.7 mph N/A   Mostly Cloudy
12:35 AM 77.0 °F - 71.6 °F 83% 29.75 in 10.0 mi SSW 12.7 mph 19.6 mph N/A   Mostly Cloudy
12:55 AM 77.0 °F - 71.6 °F 83% 29.74 in 10.0 mi SSW 12.7 mph - N/A   Scattered Clouds
1:15 AM 77.0 °F - 71.6 °F 83% 29.74 in 10.0 mi SSW 12.7 mph 19.6 mph N/A   Mostly Cloudy
1:35 AM 77.0 °F - 71.6 °F 83% 29.74 in 10.0 mi SSW 9.2 mph 16.1 mph N/A   Mostly Cloudy
1:55 AM 77.0 °F - 71.6 °F 83% 29.74 in 9.0 mi SSW 13.8 mph - N/A   Mostly Cloudy
2:15 AM 77.0 °F - 71.6 °F 83% 29.75 in 10.0 mi SSW 12.7 mph - N/A   Overcast
2:35 AM 77.0 °F - 71.6 °F 83% 29.75 in 10.0 mi SW 11.5 mph 17.3 mph N/A   Overcast
2:55 AM 75.2 °F - 71.6 °F 89% 29.74 in 10.0 mi SW 13.8 mph - N/A   Overcast
3:35 AM 75.2 °F - 69.8 °F 83% 29.75 in 10.0 mi SW 12.7 mph 20.7 mph N/A   Overcast
3:55 AM 73.4 °F - 68.0 °F 83% 29.76 in 10.0 mi SW 15.0 mph 24.2 mph N/A   Mostly Cloudy
4:15 AM 75.2 °F - 68.0 °F 78% 29.76 in 10.0 mi SW 12.7 mph 20.7 mph N/A   Overcast
4:35 AM 75.2 °F - 68.0 °F 78% 29.76 in 10.0 mi WSW 11.5 mph 17.3 mph N/A   Overcast
4:55 AM 73.4 °F - 68.0 °F 83% 29.76 in 10.0 mi WSW 13.8 mph - N/A   Overcast
5:15 AM 73.4 °F - 68.0 °F 83% 29.77 in 10.0 mi WSW 13.8 mph 20.7 mph N/A   Overcast
5:35 AM 73.4 °F - 66.2 °F 78% 29.78 in 10.0 mi WSW 10.4 mph 18.4 mph N/A   Overcast
5:55 AM 73.4 °F - 66.2 °F 78% 29.80 in 10.0 mi WSW 9.2 mph 16.1 mph N/A   Overcast
6:15 AM 71.6 °F - 66.2 °F 83% 29.81 in 10.0 mi WSW 13.8 mph - N/A   Overcast
6:35 AM 71.6 °F - 66.2 °F 83% 29.82 in 10.0 mi WSW 12.7 mph 20.7 mph N/A   Overcast
6:50 AM 71.6 °F - 64.4 °F 78% 29.83 in 10.0 mi West 16.1 mph 21.9 mph N/A   Overcast
7:50 AM 69.8 °F - 64.4 °F 83% 29.85 in 10.0 mi West 17.3 mph 25.3 mph N/A   Overcast
8:50 AM 69.8 °F - 64.4 °F 83% 29.88 in 10.0 mi West 11.5 mph 19.6 mph N/A   Mostly Cloudy
9:50 AM 71.6 °F - 64.4 °F 78% 29.91 in 10.0 mi West 10.4 mph 17.3 mph N/A   Mostly Cloudy
10:50 AM 73.4 °F - 64.4 °F 73% 29.93 in 10.0 mi West 11.5 mph 19.6 mph N/A   Mostly Cloudy
11:50 AM 75.2 °F - 64.4 °F 69% 29.94 in 10.0 mi WNW 11.5 mph 19.6 mph N/A   Mostly Cloudy
12:50 PM 78.8 °F - 64.4 °F 61% 29.94 in 10.0 mi West 9.2 mph 17.3 mph N/A   Scattered Clouds
1:50 PM 80.6 °F 82.3 °F 64.4 °F 58% 29.92 in 10.0 mi West 9.2 mph - N/A   Clear
2:50 PM 82.4 °F 83.9 °F 64.4 °F 54% 29.91 in 10.0 mi West 9.2 mph - N/A   Clear
3:50 PM 84.2 °F 85.6 °F 64.4 °F 51% 29.91 in 10.0 mi West 9.2 mph - N/A   Clear
4:50 PM 84.2 °F 86.6 °F 66.2 °F 55% 29.91 in 10.0 mi West 8.1 mph - N/A   Clear
5:50 PM 80.6 °F 82.7 °F 66.2 °F 61% 29.91 in 10.0 mi WNW 4.6 mph - N/A   Clear
6:50 PM 77.0 °F - 64.4 °F 65% 29.92 in 10.0 mi NNW 4.6 mph - N/A   Clear
7:50 PM 68.0 °F - 64.4 °F 88% 29.93 in 10.0 mi Calm Calm - N/A   Clear
8:50 PM 64.4 °F - 62.6 °F 94% 29.95 in 10.0 mi Calm Calm - N/A   Clear
11:35 PM 60.8 °F - 60.8 °F 100% 29.98 in 9.0 mi Calm Calm - N/A   Clear
11:55 PM 60.8 °F - 59.0 °F 94% 29.98 in 9.0 mi Calm Calm - N/A   Clear